TimeEET,TemperatureF,Dew PointF,Humidity,Sea Level PressureIn,VisibilityMPH,Wind Direction,Wind SpeedMPH,Gust SpeedMPH,PrecipitationIn,Events,Conditions,WindDirDegrees,DateUTC
12:00 AM,60.8,41.0,48,30.06,-9999.0,WNW,13.8,-,N/A,,Clear,290,2013-03-06 22:00:00
1:00 AM,59.0,41.0,51,30.04,-9999.0,WNW,13.8,-,N/A,,Clear,290,2013-03-06 23:00:00
2:00 AM,59,40,38,30.06,6,WNW,15.0,,,,,300,2013-03-07 00:00:00
2:00 AM,59.0,41.0,51,30.04,-9999.0,WNW,15.0,-,N/A,,Clear,300,2013-03-07 00:00:00
3:00 AM,59.0,41.0,51,30.04,-9999.0,WNW,15.0,-,N/A,,Clear,300,2013-03-07 01:00:00
4:00 AM,57.2,39.2,51,30.04,-9999.0,WNW,15.0,-,N/A,,Clear,300,2013-03-07 02:00:00
5:00 AM,55.4,41.0,58,30.06,-9999.0,NW,12.7,-,N/A,,Clear,310,2013-03-07 03:00:00
6:00 AM,53.6,41.0,62,30.06,-9999.0,NW,9.2,-,N/A,,Clear,320,2013-03-07 04:00:00
7:00 AM,55.4,39.2,54,30.09,-9999.0,WNW,8.1,-,N/A,,Clear,300,2013-03-07 05:00:00
8:00 AM,61,40,34,30.11,6,NW,13.8,,,,,320,2013-03-07 06:00:00
8:00 AM,60.8,39.2,45,30.09,-9999.0,NW,13.8,-,N/A,,Clear,320,2013-03-07 06:00:00
9:00 AM,64.4,41.0,42,30.09,-9999.0,NNW,12.7,-,N/A,,Clear,330,2013-03-07 07:00:00
10:00 AM,69.8,42.8,38,30.09,-9999.0,North,6.9,-,N/A,,Clear,350,2013-03-07 08:00:00
11:00 AM,73.4,48.2,41,30.06,-9999.0,NNW,9.2,-,N/A,,Clear,340,2013-03-07 09:00:00
1:00 PM,80.6,51.8,37,30.04,-9999.0,ENE,8.1,-,N/A,,Clear,60,2013-03-07 11:00:00
2:00 PM,81,52,26,30.03,6,,3.5,,,,,,2013-03-07 12:00:00
2:00 PM,80.6,51.8,37,30.01,-9999.0,ENE,3.5,-,N/A,,Clear,60,2013-03-07 12:00:00
3:00 PM,80.6,53.6,39,30.01,-9999.0,East,4.6,-,N/A,,Clear,100,2013-03-07 13:00:00
4:00 PM,77.0,50.0,39,29.98,-9999.0,East,4.6,-,N/A,,Clear,90,2013-03-07 14:00:00
5:00 PM,77.0,51.8,41,29.98,-9999.0,Calm,Calm,-,N/A,,Clear,0,2013-03-07 15:00:00
6:00 PM,69.8,51.8,53,29.98,-9999.0,Calm,Calm,-,N/A,,Clear,0,2013-03-07 16:00:00
7:00 PM,66.2,48.2,52,29.98,-9999.0,Calm,Calm,-,N/A,,Clear,0,2013-03-07 17:00:00
8:00 PM,64,46,42,30.00,6,Calm,Calm,,,,,,2013-03-07 18:00:00
8:00 PM,64.4,46.4,52,29.98,-9999.0,Calm,Calm,-,N/A,,Clear,0,2013-03-07 18:00:00
9:00 PM,62.6,50.0,63,29.98,-9999.0,NNW,3.5,-,N/A,,Clear,340,2013-03-07 19:00:00
10:00 PM,60.8,50.0,68,29.98,-9999.0,Calm,Calm,-,N/A,,Clear,0,2013-03-07 20:00:00
11:00 PM,59.0,50.0,72,29.95,-9999.0,Calm,Calm,-,N/A,,Clear,0,2013-03-07 21:00:00